status,avgMeasuredTime,avgSpeed,extID,medianMeasuredTime,TIMESTAMP,vehicleCount,_id,REPORT_ID
OK,96,59,765,96,2014-08-01T07:55:00,10,20746489,209880
OK,94,61,765,94,2014-08-01T08:00:00,8,20746820,209880
OK,101,56,765,101,2014-08-01T08:05:00,4,20747269,209880
OK,91,63,765,91,2014-08-01T08:10:00,4,20747642,209880
OK,104,55,765,104,2014-08-01T08:15:00,6,20748091,209880
OK,107,53,765,107,2014-08-01T08:20:00,4,20748540,209880
OK,87,66,765,87,2014-08-01T08:25:00,3,20748989,209880
OK,108,53,765,108,2014-08-01T08:30:00,7,20749438,209880
OK,108,53,765,108,2014-08-01T08:35:00,5,20749887,209880
OK,113,50,765,113,2014-08-01T08:40:00,1,20750336,209880
OK,94,61,765,94,2014-08-01T08:45:00,3,20750785,209880
OK,91,63,765,91,2014-08-01T08:50:00,2,20751234,209880
OK,94,61,765,94,2014-08-01T08:55:00,0,20751683,209880
OK,94,61,765,94,2014-08-01T09:00:00,0,20752132,209880
OK,97,59,765,97,2014-08-01T09:05:00,2,20752581,209880
OK,111,51,765,111,2014-08-01T09:10:00,3,20753030,209880
OK,111,51,765,111,2014-08-01T09:15:00,3,20753479,209880
OK,92,62,765,92,2014-08-01T09:20:00,1,20753928,209880
OK,99,58,765,99,2014-08-01T09:25:00,3,20754377,209880
OK,115,49,765,115,2014-08-01T09:30:00,5,20754826,209880
OK,115,49,765,115,2014-08-01T09:35:00,4,20755275,209880
OK,93,61,765,93,2014-08-01T09:40:00,2,20755724,209880
OK,102,56,765,102,2014-08-01T09:45:00,3,20756173,209880
OK,89,64,765,89,2014-08-01T09:50:00,1,20756622,209880
OK,101,56,765,101,2014-08-01T09:55:00,1,20757071,209880
OK,98,58,765,98,2014-08-01T10:00:00,2,20757520,209880
OK,107,53,765,107,2014-08-01T10:05:00,5,20757969,209880
OK,104,55,765,104,2014-08-01T10:10:00,6,20758418,209880
OK,90,63,765,90,2014-08-01T10:15:00,2,20758867,209880
OK,129,44,765,129,2014-08-01T10:20:00,8,20759316,209880
OK,130,44,765,130,2014-08-01T10:25:00,7,20759765,209880
OK,97,59,765,97,2014-08-01T10:30:00,3,20760214,209880
OK,97,59,765,97,2014-08-01T10:35:00,5,20760663,209880
OK,106,54,765,106,2014-08-01T10:40:00,6,20761112,209880
OK,106,54,765,106,2014-08-01T10:45:00,6,20761561,209880
OK,104,55,765,104,2014-08-01T10:50:00,5,20762010,209880
OK,97,59,765,97,2014-08-01T10:55:00,2,20762459,209880
OK,94,61,765,94,2014-08-01T11:00:00,2,20762908,209880
OK,94,61,765,94,2014-08-01T11:05:00,2,20763357,209880
OK,106,54,765,106,2014-08-01T11:10:00,1,20763806,209880
OK,105,54,765,105,2014-08-01T11:15:00,2,20764255,209880
OK,102,56,765,102,2014-08-01T11:20:00,1,20764703,209880
OK,99,58,765,99,2014-08-01T11:25:00,4,20765152,209880
OK,102,56,765,102,2014-08-01T11:30:00,4,20765601,209880
OK,101,56,765,101,2014-08-01T11:35:00,3,20766050,209880
OK,100,57,765,100,2014-08-01T11:40:00,5,20766499,209880
OK,100,57,765,100,2014-08-01T11:45:00,3,20766948,209880
OK,103,55,765,103,2014-08-01T11:50:00,1,20767397,209880
OK,103,55,765,103,2014-08-01T11:55:00,1,20767846,209880
OK,102,56,765,102,2014-08-01T12:00:00,2,20768295,209880
OK,95,60,765,95,2014-08-01T12:05:00,5,20768744,209880
OK,101,56,765,101,2014-08-01T12:10:00,7,20769193,209880
OK,100,57,765,100,2014-08-01T12:15:00,7,20769642,209880
OK,99,58,765,99,2014-08-01T12:20:00,6,20770091,209880
OK,98,58,765,98,2014-08-01T12:25:00,3,20770540,209880
OK,88,65,765,88,2014-08-01T12:30:00,4,20770989,209880
OK,88,65,765,88,2014-08-01T12:35:00,4,20771438,209880
OK,111,51,765,111,2014-08-01T12:40:00,1,20771887,209880
OK,111,51,765,111,2014-08-01T12:45:00,1,20772336,209880
OK,98,58,765,98,2014-08-01T12:50:00,5,20772785,209880
OK,99,58,765,99,2014-08-01T12:55:00,6,20773234,209880
OK,100,57,765,100,2014-08-01T13:00:00,2,20773683,209880
OK,94,61,765,94,2014-08-01T13:05:00,4,20774132,209880
OK,94,61,765,94,2014-08-01T13:10:00,4,20774581,209880
OK,108,53,765,108,2014-08-01T13:15:00,2,20775030,209880
OK,111,51,765,111,2014-08-01T13:20:00,4,20775479,209880
OK,109,52,765,109,2014-08-01T13:25:00,5,20775928,209880
OK,96,59,765,96,2014-08-01T13:30:00,3,20776377,209880
OK,96,59,765,96,2014-08-01T13:35:00,5,20776826,209880
OK,110,52,765,110,2014-08-01T13:40:00,7,20777275,209880
OK,142,40,765,142,2014-08-01T13:45:00,2,20777724,209880
OK,87,66,765,87,2014-08-01T13:50:00,4,20778173,209880
OK,87,66,765,87,2014-08-01T13:55:00,8,20778622,209880
OK,85,67,765,85,2014-08-01T14:00:00,2,20779071,209880
OK,88,65,765,88,2014-08-01T14:05:00,3,20779520,209880
OK,84,68,765,84,2014-08-01T14:10:00,2,20779969,209880
OK,82,70,765,82,2014-08-01T14:15:00,1,20780418,209880
OK,93,61,765,93,2014-08-01T14:20:00,4,20780867,209880
OK,97,59,765,97,2014-08-01T14:25:00,3,20781316,209880
OK,87,66,765,87,2014-08-01T14:30:00,5,20781765,209880
OK,88,65,765,88,2014-08-01T14:35:00,6,20782214,209880
OK,102,56,765,102,2014-08-01T14:40:00,3,20782663,209880
OK,105,54,765,105,2014-08-01T14:45:00,1,20783112,209880
OK,113,50,765,113,2014-08-01T14:50:00,2,20783561,209880
OK,106,54,765,106,2014-08-01T14:55:00,4,20784010,209880
OK,91,63,765,91,2014-08-01T15:00:00,5,20784459,209880
OK,95,60,765,95,2014-08-01T15:05:00,4,20784908,209880
OK,104,55,765,104,2014-08-01T15:10:00,3,20785357,209880
OK,102,56,765,102,2014-08-01T15:15:00,6,20785806,209880
OK,99,58,765,99,2014-08-01T15:20:00,7,20786255,209880
OK,92,62,765,92,2014-08-01T15:25:00,4,20786704,209880
OK,97,59,765,97,2014-08-01T15:30:00,2,20787153,209880
OK,101,56,765,101,2014-08-01T15:35:00,1,20787602,209880
OK,95,60,765,95,2014-08-01T15:40:00,3,20788051,209880
OK,94,61,765,94,2014-08-01T15:45:00,6,20788500,209880
OK,96,59,765,96,2014-08-01T15:50:00,2,20788949,209880
OK,85,67,765,85,2014-08-01T15:55:00,0,20789398,209880
OK,85,67,765,85,2014-08-01T16:00:00,0,20789847,209880
OK,85,67,765,85,2014-08-01T16:05:00,0,20790296,209880
OK,85,67,765,85,2014-08-01T16:10:00,0,20790745,209880
OK,85,67,765,85,2014-08-01T16:15:00,0,20791194,209880
OK,85,67,765,85,2014-08-01T16:20:00,0,20791643,209880
OK,85,67,765,85,2014-08-01T16:25:00,0,20792092,209880
OK,83,69,765,83,2014-08-01T16:30:00,3,20792541,209880
OK,92,62,765,92,2014-08-01T16:35:00,4,20792990,209880
OK,95,60,765,95,2014-08-01T16:40:00,3,20793439,209880
OK,93,61,765,93,2014-08-01T16:45:00,2,20793888,209880
OK,91,63,765,91,2014-08-01T16:50:00,2,20794337,209880
OK,90,63,765,90,2014-08-01T16:55:00,1,20794786,209880
OK,83,69,765,83,2014-08-01T17:00:00,1,20795235,209880
OK,83,69,765,83,2014-08-01T17:05:00,1,20795684,209880
OK,106,54,765,106,2014-08-01T17:10:00,1,20796133,209880
OK,104,55,765,104,2014-08-01T17:15:00,3,20796582,209880
OK,101,56,765,101,2014-08-01T17:20:00,3,20797031,209880
OK,92,62,765,92,2014-08-01T17:25:00,2,20797480,209880
OK,94,61,765,94,2014-08-01T17:30:00,2,20797929,209880
OK,94,61,765,94,2014-08-01T17:35:00,0,20798378,209880
OK,94,61,765,94,2014-08-01T17:40:00,0,20798827,209880
OK,94,61,765,94,2014-08-01T17:45:00,0,20799276,209880
OK,89,64,765,89,2014-08-01T17:50:00,2,20799725,209880
OK,83,69,765,83,2014-08-01T17:55:00,3,20800174,209880
OK,88,65,765,88,2014-08-01T18:00:00,2,20800623,209880
OK,92,62,765,92,2014-08-01T18:05:00,2,20801072,209880
OK,91,63,765,91,2014-08-01T18:10:00,1,20801521,209880
OK,94,61,765,94,2014-08-01T18:15:00,1,20801970,209880
OK,94,61,765,94,2014-08-01T18:20:00,1,20802419,209880
OK,94,61,765,94,2014-08-01T18:25:00,0,20802868,209880
OK,99,58,765,99,2014-08-01T18:30:00,1,20803317,209880
OK,99,58,765,99,2014-08-01T18:35:00,0,20803766,209880
OK,99,58,765,99,2014-08-01T18:40:00,0,20804215,209880
OK,99,58,765,99,2014-08-01T18:45:00,0,20804664,209880
OK,75,76,765,75,2014-08-01T18:50:00,1,20805113,209880
OK,88,65,765,88,2014-08-01T18:55:00,3,20805562,209880
OK,88,65,765,88,2014-08-01T19:00:00,3,20806011,209880
OK,80,71,765,80,2014-08-01T19:05:00,2,20806460,209880
OK,84,68,765,84,2014-08-01T19:10:00,1,20806909,209880
OK,94,61,765,94,2014-08-01T19:15:00,1,20807358,209880
OK,90,63,765,90,2014-08-01T19:20:00,2,20807807,209880
OK,92,62,765,92,2014-08-01T19:25:00,2,20808256,209880
OK,89,64,765,89,2014-08-01T19:30:00,3,20808705,209880
OK,87,66,765,87,2014-08-01T19:35:00,2,20809154,209880
OK,89,64,765,89,2014-08-01T19:40:00,2,20809603,209880
OK,84,68,765,84,2014-08-01T19:45:00,2,20810052,209880
OK,86,66,765,86,2014-08-01T19:50:00,2,20810501,209880
OK,91,63,765,91,2014-08-01T19:55:00,3,20810950,209880
OK,94,61,765,94,2014-08-01T21:20:00,1,20814736,209880
OK,104,55,765,104,2014-08-01T22:00:00,0,20816679,209880
OK,104,55,765,104,2014-08-01T22:05:00,0,20817128,209880
OK,104,55,765,104,2014-08-01T22:10:00,0,20817450,209880
OK,104,55,765,104,2014-08-01T22:15:00,0,20817879,209880
OK,93,61,765,93,2014-08-01T22:20:00,1,20818169,209880
OK,93,61,765,93,2014-08-01T22:25:00,0,20818485,209880
OK,93,61,765,93,2014-08-01T23:40:00,0,20822004,209880
OK,93,61,765,93,2014-08-01T23:45:00,0,20822227,209880
OK,93,61,765,93,2014-08-02T00:00:00,0,20823118,209880
OK,93,61,765,93,2014-08-02T00:05:00,0,20823567,209880
OK,93,61,765,93,2014-08-02T00:10:00,0,20824016,209880
OK,93,61,765,93,2014-08-02T00:15:00,0,20824465,209880
OK,93,61,765,93,2014-08-02T00:20:00,0,20824914,209880
OK,93,61,765,93,2014-08-02T00:25:00,0,20825363,209880
OK,93,61,765,93,2014-08-02T00:30:00,0,20825812,209880
OK,93,61,765,93,2014-08-02T00:35:00,0,20826261,209880
OK,93,61,765,93,2014-08-02T00:40:00,0,20826710,209880
OK,107,53,765,107,2014-08-02T00:45:00,1,20827159,209880
OK,107,53,765,107,2014-08-02T00:50:00,0,20827608,209880
OK,107,53,765,107,2014-08-02T00:55:00,0,20828057,209880
OK,107,53,765,107,2014-08-02T01:00:00,0,20828506,209880
OK,107,53,765,107,2014-08-02T01:05:00,0,20828955,209880
OK,107,53,765,107,2014-08-02T01:10:00,0,20829404,209880
OK,107,53,765,107,2014-08-02T01:15:00,0,20829853,209880
OK,107,53,765,107,2014-08-02T01:20:00,0,20830302,209880
OK,107,53,765,107,2014-08-02T01:25:00,0,20830751,209880
OK,107,53,765,107,2014-08-02T01:30:00,0,20831200,209880
OK,107,53,765,107,2014-08-02T01:35:00,0,20831649,209880
OK,107,53,765,107,2014-08-02T01:40:00,0,20832098,209880
OK,107,53,765,107,2014-08-02T01:45:00,0,20832547,209880
OK,107,53,765,107,2014-08-02T01:50:00,0,20832996,209880
OK,107,53,765,107,2014-08-02T01:55:00,0,20833445,209880
OK,107,53,765,107,2014-08-02T02:00:00,0,20833894,209880
OK,107,53,765,107,2014-08-02T02:05:00,0,20834343,209880
OK,107,53,765,107,2014-08-02T02:10:00,0,20834792,209880
OK,107,53,765,107,2014-08-02T02:15:00,0,20835241,209880
OK,107,53,765,107,2014-08-02T02:20:00,0,20835690,209880
OK,107,53,765,107,2014-08-02T02:25:00,0,20836139,209880
OK,107,53,765,107,2014-08-02T02:30:00,0,20836588,209880
OK,107,53,765,107,2014-08-02T02:35:00,0,20837037,209880
OK,107,53,765,107,2014-08-02T02:40:00,0,20837486,209880
OK,76,75,765,76,2014-08-02T02:45:00,1,20837935,209880
OK,76,75,765,76,2014-08-02T02:50:00,1,20838384,209880
OK,76,75,765,76,2014-08-02T02:55:00,0,20838833,209880
OK,76,75,765,76,2014-08-02T03:00:00,0,20839282,209880
OK,76,75,765,76,2014-08-02T03:05:00,0,20839731,209880
OK,76,75,765,76,2014-08-02T03:10:00,0,20840180,209880
OK,76,75,765,76,2014-08-02T03:15:00,0,20840629,209880
OK,76,75,765,76,2014-08-02T03:20:00,0,20841078,209880
OK,76,75,765,76,2014-08-02T03:25:00,0,20841527,209880
OK,76,75,765,76,2014-08-02T03:30:00,0,20841976,209880
OK,76,75,765,76,2014-08-02T03:35:00,0,20842425,209880
OK,76,75,765,76,2014-08-02T03:40:00,0,20842874,209880
OK,76,75,765,76,2014-08-02T03:45:00,0,20843323,209880
OK,76,75,765,76,2014-08-02T03:50:00,0,20843772,209880
OK,76,75,765,76,2014-08-02T03:55:00,0,20844221,209880
OK,97,59,765,97,2014-08-02T04:10:00,1,20845131,209880
OK,97,59,765,97,2014-08-02T04:15:00,0,20845311,209880
OK,97,59,765,97,2014-08-02T04:20:00,0,20845667,209880
OK,97,59,765,97,2014-08-02T04:30:00,0,20846223,209880
OK,97,59,765,97,2014-08-02T04:35:00,0,20846590,209880
OK,102,56,765,102,2014-08-02T04:40:00,1,20846973,209880
OK,102,56,765,102,2014-08-02T04:45:00,0,20847232,209880
OK,80,71,765,80,2014-08-02T04:50:00,1,20847598,209880
OK,103,55,765,103,2014-08-02T05:00:00,1,20848314,209880
OK,103,55,765,103,2014-08-02T05:10:00,0,20848832,209880
OK,87,66,765,87,2014-08-02T05:15:00,1,20849025,209880
OK,87,66,765,87,2014-08-02T05:20:00,0,20849369,209880
OK,87,66,765,87,2014-08-02T05:40:00,0,20850459,209880
OK,87,66,765,87,2014-08-02T05:50:00,0,20851118,209880
OK,87,66,765,87,2014-08-02T05:55:00,0,20851372,209880
OK,87,66,765,87,2014-08-02T06:00:00,0,20851675,209880
OK,87,66,765,87,2014-08-02T06:05:00,0,20852124,209880
OK,90,63,765,90,2014-08-02T06:10:00,1,20852573,209880
OK,90,63,765,90,2014-08-02T06:15:00,0,20853022,209880
OK,102,56,765,102,2014-08-02T06:20:00,1,20853471,209880
OK,95,60,765,95,2014-08-02T06:25:00,2,20853920,209880
OK,94,61,765,94,2014-08-02T06:30:00,1,20854369,209880
OK,94,61,765,94,2014-08-02T06:35:00,1,20854818,209880
OK,94,61,765,94,2014-08-02T06:40:00,0,20855267,209880
OK,102,56,765,102,2014-08-02T06:45:00,1,20855716,209880
OK,101,56,765,101,2014-08-02T06:50:00,2,20856165,209880
OK,99,58,765,99,2014-08-02T06:55:00,1,20856614,209880
OK,99,58,765,99,2014-08-02T07:00:00,0,20857063,209880
OK,99,58,765,99,2014-08-02T07:05:00,0,20857512,209880
OK,99,58,765,99,2014-08-02T07:10:00,0,20857961,209880
OK,90,63,765,90,2014-08-02T07:15:00,2,20858410,209880
OK,97,59,765,97,2014-08-02T07:20:00,1,20858859,209880
OK,95,60,765,95,2014-08-02T07:25:00,1,20859308,209880
OK,98,58,765,98,2014-08-02T07:30:00,2,20859757,209880
OK,102,56,765,102,2014-08-02T07:35:00,1,20860206,209880
OK,102,56,765,102,2014-08-02T07:40:00,0,20860655,209880
OK,102,56,765,102,2014-08-02T07:45:00,1,20861104,209880
OK,98,58,765,98,2014-08-02T07:50:00,2,20861553,209880
OK,95,60,765,95,2014-08-02T07:55:00,1,20862002,209880
OK,98,58,765,98,2014-08-02T08:00:00,6,20862451,209880
OK,94,61,765,94,2014-08-02T08:05:00,6,20862900,209880
OK,86,66,765,86,2014-08-02T08:10:00,3,20863349,209880
OK,100,57,765,100,2014-08-02T08:15:00,2,20863798,209880
OK,107,53,765,107,2014-08-02T08:20:00,1,20864247,209880
OK,107,53,765,107,2014-08-02T08:25:00,5,20864696,209880
OK,99,58,765,99,2014-08-02T08:30:00,4,20865145,209880
OK,103,55,765,103,2014-08-02T08:35:00,4,20865594,209880
OK,86,66,765,86,2014-08-02T08:40:00,2,20866043,209880
OK,104,55,765,104,2014-08-02T08:45:00,4,20866492,209880
OK,109,52,765,109,2014-08-02T08:50:00,6,20866941,209880
OK,101,56,765,101,2014-08-02T08:55:00,3,20867390,209880
OK,94,61,765,94,2014-08-02T09:00:00,6,20867839,209880
OK,93,61,765,93,2014-08-02T09:05:00,7,20868288,209880
OK,88,65,765,88,2014-08-02T09:10:00,2,20868737,209880
OK,84,68,765,84,2014-08-02T09:15:00,3,20869186,209880
OK,87,66,765,87,2014-08-02T09:20:00,3,20869635,209880
OK,93,61,765,93,2014-08-02T09:25:00,2,20870084,209880
OK,94,61,765,94,2014-08-02T09:30:00,3,20870533,209880
OK,94,61,765,94,2014-08-02T09:35:00,3,20870982,209880
OK,91,63,765,91,2014-08-02T09:40:00,1,20871431,209880
OK,87,66,765,87,2014-08-02T09:45:00,1,20871880,209880
OK,90,63,765,90,2014-08-02T09:50:00,2,20872329,209880
OK,99,58,765,99,2014-08-02T09:55:00,7,20872778,209880
OK,99,58,765,99,2014-08-02T10:00:00,8,20873227,209880
OK,90,63,765,90,2014-08-02T10:05:00,2,20873676,209880
OK,91,63,765,91,2014-08-02T10:10:00,2,20874125,209880
OK,91,63,765,91,2014-08-02T10:15:00,2,20874574,209880
OK,96,59,765,96,2014-08-02T10:20:00,1,20875023,209880
OK,96,59,765,96,2014-08-02T10:25:00,1,20875472,209880
OK,95,60,765,95,2014-08-02T10:30:00,2,20875921,209880
OK,95,60,765,95,2014-08-02T10:35:00,2,20876370,209880
OK,87,66,765,87,2014-08-02T10:40:00,1,20876819,209880
OK,91,63,765,91,2014-08-02T10:45:00,2,20877268,209880
OK,96,59,765,96,2014-08-02T10:50:00,3,20877717,209880
OK,99,58,765,99,2014-08-02T10:55:00,5,20878166,209880
OK,107,53,765,107,2014-08-02T11:00:00,3,20878615,209880
OK,91,63,765,91,2014-08-02T11:05:00,3,20879064,209880
OK,91,63,765,91,2014-08-02T11:10:00,3,20879513,209880
OK,95,60,765,95,2014-08-02T11:15:00,2,20879962,209880
OK,104,55,765,104,2014-08-02T11:20:00,1,20880411,209880
OK,94,61,765,94,2014-08-02T11:25:00,3,20880860,209880
OK,98,58,765,98,2014-08-02T11:30:00,5,20881309,209880
OK,103,55,765,103,2014-08-02T11:35:00,3,20881758,209880
OK,92,62,765,92,2014-08-02T11:40:00,1,20882207,209880
OK,91,63,765,91,2014-08-02T11:45:00,3,20882656,209880
OK,91,63,765,91,2014-08-02T11:50:00,5,20883105,209880
OK,91,63,765,91,2014-08-02T11:55:00,3,20883554,209880
OK,94,61,765,94,2014-08-02T12:00:00,3,20884003,209880
OK,95,60,765,95,2014-08-02T12:05:00,2,20884452,209880
OK,95,60,765,95,2014-08-02T12:10:00,0,20884901,209880
OK,104,55,765,104,2014-08-02T12:15:00,2,20885350,209880
OK,95,60,765,95,2014-08-02T12:20:00,1,20885799,209880
OK,95,60,765,95,2014-08-02T12:25:00,1,20886248,209880
OK,95,60,765,95,2014-08-02T12:30:00,3,20886697,209880
OK,93,61,765,93,2014-08-02T12:35:00,3,20887146,209880
OK,93,61,765,93,2014-08-02T12:40:00,5,20887595,209880
OK,93,61,765,93,2014-08-02T12:45:00,4,20888044,209880
OK,97,59,765,97,2014-08-02T12:50:00,2,20888493,209880
OK,91,63,765,91,2014-08-02T12:55:00,2,20888942,209880
OK,83,69,765,83,2014-08-02T13:00:00,3,20889391,209880
OK,89,64,765,89,2014-08-02T13:05:00,2,20889840,209880
OK,98,58,765,98,2014-08-02T13:10:00,1,20890289,209880
OK,94,61,765,94,2014-08-02T13:15:00,4,20890738,209880
OK,100,57,765,100,2014-08-02T13:20:00,8,20891187,209880
OK,103,55,765,103,2014-08-02T13:25:00,4,20891636,209880
OK,103,55,765,103,2014-08-02T13:30:00,0,20892085,209880
OK,99,58,765,99,2014-08-02T13:35:00,3,20892534,209880
OK,97,59,765,97,2014-08-02T13:40:00,2,20892983,209880
OK,85,67,765,85,2014-08-02T13:45:00,1,20893432,209880
OK,85,67,765,85,2014-08-02T13:50:00,1,20893881,209880
OK,99,58,765,99,2014-08-02T13:55:00,2,20894330,209880
OK,85,67,765,85,2014-08-02T14:00:00,3,20894779,209880
OK,92,62,765,92,2014-08-02T14:05:00,3,20895228,209880
OK,113,50,765,113,2014-08-02T14:10:00,3,20895677,209880
OK,113,50,765,113,2014-08-02T14:15:00,1,20896126,209880
OK,95,60,765,95,2014-08-02T14:20:00,2,20896575,209880
OK,95,60,765,95,2014-08-02T14:25:00,3,20897024,209880
OK,95,60,765,95,2014-08-02T14:30:00,1,20897473,209880
OK,92,62,765,92,2014-08-02T14:35:00,2,20897922,209880
OK,91,63,765,91,2014-08-02T14:40:00,3,20898371,209880
OK,93,61,765,93,2014-08-02T14:45:00,2,20898820,209880
OK,76,75,765,76,2014-08-02T14:50:00,1,20899269,209880
OK,80,71,765,80,2014-08-02T14:55:00,2,20899718,209880
OK,85,67,765,85,2014-08-02T15:00:00,1,20900167,209880
OK,95,60,765,95,2014-08-02T15:05:00,1,20900616,209880
OK,106,54,765,106,2014-08-02T15:10:00,3,20901065,209880
OK,106,54,765,106,2014-08-02T15:15:00,2,20901514,209880
OK,92,62,765,92,2014-08-02T15:20:00,4,20901963,209880
OK,92,62,765,92,2014-08-02T15:25:00,2,20902412,209880
OK,75,76,765,75,2014-08-02T15:30:00,1,20902861,209880
OK,92,62,765,92,2014-08-02T15:35:00,2,20903310,209880
OK,96,59,765,96,2014-08-02T15:40:00,3,20903759,209880
OK,92,62,765,92,2014-08-02T15:45:00,2,20904208,209880
OK,99,58,765,99,2014-08-02T15:50:00,4,20904657,209880
OK,94,61,765,94,2014-08-02T15:55:00,2,20905106,209880
OK,79,72,765,79,2014-08-02T16:00:00,1,20905555,209880
OK,90,63,765,90,2014-08-02T16:05:00,2,20906004,209880
OK,90,63,765,90,2014-08-02T16:10:00,3,20906453,209880
OK,85,67,765,85,2014-08-02T16:15:00,4,20906902,209880
OK,83,69,765,83,2014-08-02T16:20:00,1,20907351,209880
OK,92,62,765,92,2014-08-02T16:25:00,3,20907800,209880
OK,91,63,765,91,2014-08-02T16:30:00,5,20908249,209880
OK,88,65,765,88,2014-08-02T16:35:00,4,20908698,209880
OK,92,62,765,92,2014-08-02T16:40:00,2,20909147,209880
OK,93,61,765,93,2014-08-02T16:45:00,1,20909596,209880
OK,101,56,765,101,2014-08-02T16:50:00,2,20910045,209880
OK,98,58,765,98,2014-08-02T16:55:00,3,20910494,209880
OK,94,61,765,94,2014-08-02T17:00:00,1,20910943,209880
OK,94,61,765,94,2014-08-02T17:05:00,0,20911392,209880
OK,97,59,765,97,2014-08-02T17:10:00,3,20911841,209880
OK,92,62,765,92,2014-08-02T17:15:00,4,20912290,209880
OK,86,66,765,86,2014-08-02T17:20:00,0,20912739,209880
OK,72,79,765,72,2014-08-02T17:25:00,2,20913188,209880
OK,92,62,765,92,2014-08-02T17:30:00,5,20913637,209880
OK,92,62,765,92,2014-08-02T17:35:00,1,20914086,209880
OK,92,62,765,92,2014-08-02T17:40:00,0,20914535,209880
OK,107,53,765,107,2014-08-02T17:45:00,1,20914984,209880
OK,102,56,765,102,2014-08-02T17:50:00,2,20915433,209880
OK,101,56,765,101,2014-08-02T17:55:00,1,20915882,209880
OK,101,56,765,101,2014-08-02T18:00:00,1,20916331,209880
OK,91,63,765,91,2014-08-02T18:05:00,1,20916780,209880
OK,92,62,765,92,2014-08-02T18:10:00,3,20917229,209880
OK,94,61,765,94,2014-08-02T18:15:00,2,20917678,209880
OK,94,61,765,94,2014-08-02T18:20:00,2,20918127,209880
OK,89,64,765,89,2014-08-02T18:25:00,1,20918576,209880
OK,78,73,765,78,2014-08-02T18:30:00,1,20919025,209880
OK,84,68,765,84,2014-08-02T18:35:00,2,20919474,209880
OK,92,62,765,92,2014-08-02T18:40:00,2,20919923,209880
OK,95,60,765,95,2014-08-02T18:45:00,1,20920372,209880
OK,101,56,765,101,2014-08-02T18:50:00,2,20920821,209880
OK,98,58,765,98,2014-08-02T18:55:00,3,20921270,209880
OK,95,60,765,95,2014-08-02T19:00:00,1,20921719,209880
OK,95,60,765,95,2014-08-02T19:05:00,0,20922168,209880
OK,100,57,765,100,2014-08-02T19:10:00,1,20922617,209880
OK,83,69,765,83,2014-08-02T19:15:00,1,20923066,209880
OK,83,69,765,83,2014-08-02T19:20:00,1,20923515,209880
OK,78,73,765,78,2014-08-02T19:25:00,2,20923964,209880
OK,81,70,765,81,2014-08-02T19:30:00,4,20924413,209880
OK,85,67,765,85,2014-08-02T19:35:00,0,20924862,209880
OK,85,67,765,85,2014-08-02T19:40:00,0,20925311,209880
OK,86,66,765,86,2014-08-02T19:45:00,1,20925760,209880
OK,86,66,765,86,2014-08-02T19:50:00,0,20926209,209880
OK,106,54,765,106,2014-08-02T19:55:00,0,20926658,209880
OK,99,58,765,99,2014-08-02T20:00:00,1,20927107,209880
OK,99,58,765,99,2014-08-02T20:05:00,1,20927556,209880
OK,99,58,765,99,2014-08-02T20:10:00,0,20928005,209880
OK,102,56,765,102,2014-08-02T20:15:00,1,20928454,209880
OK,88,65,765,88,2014-08-02T20:20:00,1,20928903,209880
OK,106,54,765,106,2014-08-02T20:25:00,3,20929352,209880
OK,106,54,765,106,2014-08-02T20:30:00,3,20929801,209880
OK,96,59,765,96,2014-08-02T20:35:00,1,20930250,209880
OK,86,66,765,86,2014-08-02T20:40:00,1,20930699,209880
OK,94,61,765,94,2014-08-02T20:45:00,3,20931148,209880
OK,103,55,765,103,2014-08-02T20:50:00,2,20931597,209880
OK,113,50,765,113,2014-08-02T20:55:00,0,20932046,209880
OK,80,71,765,80,2014-08-02T21:00:00,1,20932495,209880
OK,80,71,765,80,2014-08-02T21:05:00,0,20932944,209880
OK,80,71,765,80,2014-08-02T21:10:00,0,20933393,209880
OK,80,71,765,80,2014-08-02T21:15:00,0,20933842,209880
OK,80,71,765,80,2014-08-02T21:20:00,0,20934291,209880
OK,82,70,765,82,2014-08-02T21:25:00,1,20934740,209880
OK,82,70,765,82,2014-08-02T21:30:00,0,20935189,209880
OK,82,70,765,82,2014-08-02T21:35:00,0,20935638,209880
OK,82,70,765,82,2014-08-02T21:40:00,0,20936087,209880
OK,92,62,765,92,2014-08-02T21:45:00,2,20936536,209880
OK,93,61,765,93,2014-08-02T21:50:00,3,20936985,209880
OK,96,59,765,96,2014-08-02T21:55:00,2,20937434,209880
OK,96,59,765,96,2014-08-02T22:00:00,0,20937883,209880
OK,108,53,765,108,2014-08-02T22:05:00,1,20938332,209880
OK,89,64,765,89,2014-08-02T22:10:00,2,20938781,209880
OK,89,64,765,89,2014-08-02T22:15:00,0,20939230,209880
OK,103,55,765,103,2014-08-02T22:20:00,1,20939679,209880
OK,103,55,765,103,2014-08-02T22:25:00,0,20940128,209880
OK,85,67,765,85,2014-08-02T22:30:00,1,20940577,209880
OK,85,67,765,85,2014-08-02T22:35:00,0,20941026,209880
OK,85,67,765,85,2014-08-02T22:40:00,0,20941475,209880
OK,85,67,765,85,2014-08-02T22:45:00,0,20941924,209880
OK,85,67,765,85,2014-08-02T22:50:00,0,20942373,209880
OK,85,67,765,85,2014-08-02T22:55:00,0,20942822,209880
OK,85,67,765,85,2014-08-02T23:00:00,0,20943271,209880
OK,85,67,765,85,2014-08-02T23:10:00,0,20943720,209880
OK,85,67,765,85,2014-08-02T23:15:00,0,20944169,209880
OK,85,67,765,85,2014-08-02T23:20:00,0,20944618,209880
OK,85,67,765,85,2014-08-02T23:25:00,0,20945067,209880
OK,85,67,765,85,2014-08-02T23:30:00,0,20945516,209880
OK,85,67,765,85,2014-08-02T23:35:00,0,20945965,209880
OK,85,67,765,85,2014-08-02T23:40:00,0,20946414,209880
OK,85,67,765,85,2014-08-02T23:45:00,0,20946863,209880